RH
63 63 65 64 61 58 60 63 64 66 68 69 70 69 71 75 52 46 48 53 76 74 72 75 75 72 73 73 75 75 74 73 71
69 70 69 70 70 68 67 66 65 66 66 66 66 66 69 47 43 44 45 68 78 74 71 69 72 74 72 74 74 74 73 73 73
69 71 70 70 70 70 70 69 70 69 69 69 70 70 71 40 31 38 44 74 75 72 75 73 75 74 74 73 74 78 76 76 77
66 66 70 71 70 70 71 71 72 70 67 68 71 71 70 47 33 34 41 74 67 64 67 72 74 73 72 74 75 76 79 78 77
57 59 69 69 68 68 68 68 67 65 62 62 66 67 71 42 35 33 56 66 66 63 60 64 66 68 73 76 76 75 76 77 77
38 68 67 66 65 64 62 62 61 60 64 58 58 67 31 30 32 33 69 66 64 63 62 61 61 61 63 66 70 75 76 77 77
43 57 60 58 59 55 50 48 51 53 33 34 52 31 32 33 35 48 71 68 62 58 59 61 65 69 71 72 71 71 72 72 76
36 35 38 40 50 36 38 33 26 27 27 28 26 32 35 33 34 70 81 71 62 61 68 71 69 69 68 67 65 66 68 69 71
38 36 37 36 34 32 30 27 22 21 19 17 18 26 33 36 37 77 82 74 70 65 68 67 67 65 64 64 65 71 70 69 71
37 34 31 28 27 22 20 20 19 18 19 16 18 24 31 34 40 58 79 75 74 70 68 70 68 66 68 69 71 70 70 68 68
36 31 28 25 25 24 22 22 23 22 22 20 20 28 34 39 43 46 70 77 74 71 70 73 74 74 73 70 70 70 70 69 68
29 28 27 27 27 27 27 26 28 29 24 23 26 33 38 41 46 49 50 66 71 72 73 71 69 70 69 67 69 70 70 68 71
28 26 26 27 28 28 30 28 33 33 31 30 30 37 43 45 45 48 48 50 45 63 62 66 67 67 68 67 65 64 63 66 71
30 28 28 27 31 30 30 32 33 36 36 31 32 45 49 48 44 47 50 51 50 48 62 54 60 63 65 65 65 65 65 66 69
36 32 29 30 32 31 32 33 35 35 35 28 30 42 50 53 52 51 47 50 49 46 48 52 51 53 58 60 63 62 63 64 65
41 39 34 31 31 32 31 34 37 39 37 43 38 35 43 48 46 45 48 46 42 42 45 46 48 43 45 47 58 58 60 61 62
46 44 42 38 39 36 36 40 40 40 39 44 49 43 35 37 40 41 42 36 42 48 44 41 44 51 52 56 53 56 59 59 59
52 49 47 46 46 47 46 44 43 46 44 39 48 46 44 43 37 37 40 42 46 43 45 45 47 47 52 53 51 55 59 60 60
52 57 54 52 50 51 52 42 48 51 52 49 37 43 44 48 47 40 39 41 40 47 47 46 49 51 57 53 58 59 58 58 61
53 55 56 57 57 56 56 57 54 54 55 56 54 51 51 49 56 58 49 44 47 46 45 43 48 48 57 62 58 60 57 57 58
Wind_Speed
11 11 11 12 10 9 10 10 11 11 10 10 10 10 10 11 11 6 2 2 7 4 7 8 8 8 6 7 7 7 7 7 7
12 12 12 12 12 12 11 11 11 11 10 10 11 11 13 9 9 9 7 6 8 7 9 9 9 9 8 9 10 10 9 9 8
10 11 11 11 11 11 11 11 11 11 10 10 10 11 12 11 7 6 6 12 10 9 11 10 11 10 10 10 10 11 12 10 10
9 9 11 11 10 10 10 10 10 10 9 9 9 10 11 9 5 7 5 12 11 8 9 9 9 8 9 11 11 10 11 11 11
7 10 10 9 9 9 9 9 9 9 7 6 8 11 13 10 5 5 6 11 10 10 8 8 9 10 10 9 8 7 8 10 12
5 6 6 8 7 8 8 8 8 10 10 5 6 9 4 5 4 4 12 11 11 10 9 8 9 9 9 9 10 9 8 8 8
4 1 2 1 5 4 4 4 8 7 6 2 7 4 5 4 3 5 12 10 9 8 8 8 8 9 9 10 10 10 9 9 9
4 4 4 6 5 6 7 6 6 7 5 5 6 5 5 4 2 9 12 9 6 6 8 8 9 9 9 9 9 9 10 10 10
4 4 5 5 5 7 7 5 7 7 6 6 6 6 4 3 2 8 11 9 9 8 8 8 8 7 7 8 7 9 10 10 10
5 4 5 5 6 6 6 7 7 7 7 7 6 5 5 5 2 6 9 8 8 7 7 8 8 8 8 9 9 9 10 10 10
4 5 4 5 5 6 6 7 7 6 6 6 5 5 3 4 4 3 7 7 7 8 9 10 10 11 12 10 10 12 11 11 11
4 3 4 5 5 6 6 6 6 5 6 7 5 4 4 2 2 2 3 7 9 9 10 10 8 10 10 9 10 11 12 11 12
3 4 4 5 5 5 5 6 5 5 5 6 5 4 2 2 2 1 2 2 1 8 7 8 8 9 10 10 10 10 10 11 12
4 3 3 4 4 4 5 5 5 5 5 6 4 3 4 3 2 2 2 2 2 3 5 3 4 6 8 9 10 11 11 11 12
3 3 3 3 3 4 4 6 5 5 5 7 5 4 3 3 3 2 3 1 2 2 3 3 2 3 6 8 11 11 11 11 11
4 3 3 3 4 4 5 5 6 5 6 6 6 4 4 5 4 4 4 3 3 3 3 3 2 3 5 3 9 10 11 11 11
5 5 4 4 4 4 4 4 4 5 4 4 6 4 2 4 5 4 4 5 3 4 4 4 4 3 3 3 6 8 9 10 9
6 6 5 5 4 4 4 3 4 4 4 2 3 4 3 6 2 3 4 5 4 5 3 5 5 4 4 3 4 5 9 10 10
6 6 6 6 4 5 4 3 3 3 5 3 3 4 5 4 5 1 4 4 5 5 4 5 4 5 4 4 6 5 8 9 9
6 6 6 6 4 5 6 5 5 4 4 4 4 5 5 6 5 6 5 4 5 5 5 6 4 5 5 4 5 4 7 9 9
Wind_Direction
27 25 23 21 18 15 20 21 18 15 11 5 1 355 341 316 287 286 265 256 82 19 307 301 298 297 286 248 244 254 264 273 271
28 28 26 25 24 22 21 19 19 18 18 15 7 358 343 309 301 304 299 44 38 344 303 298 299 294 285 269 259 259 262 262 269
33 31 28 22 19 16 13 12 11 8 7 7 3 353 342 316 316 329 308 21 12 325 306 313 315 302 298 288 271 269 270 266 268
34 35 20 17 11 10 7 2 358 352 348 350 347 336 318 303 346 315 31 16 1 344 347 349 348 329 304 301 303 294 275 272 264
61 16 23 15 9 7 2 355 345 333 323 331 331 313 295 263 310 291 42 15 343 337 347 2 0 3 9 2 337 319 303 282 274
21 63 18 16 12 9 1 353 337 311 266 240 290 289 305 324 318 316 20 358 329 327 333 338 338 343 352 357 5 5 353 333 302
326 172 201 231 348 255 325 308 286 281 349 324 243 318 336 314 324 62 18 343 324 321 324 332 352 2 2 355 354 355 353 351 3
13 359 4 353 2 358 352 347 4 351 353 344 334 338 329 322 332 58 25 359 6 24 27 20 5 353 344 340 339 343 347 345 343
355 3 356 359 352 357 352 344 343 337 345 340 330 333 332 323 334 77 32 13 17 20 7 5 360 0 359 359 4 5 354 350 350
343 6 4 2 353 355 345 343 336 334 341 336 332 328 336 337 358 89 63 27 25 21 16 13 11 4 10 22 24 14 8 357 347
354 355 5 3 2 350 339 340 329 327 334 326 334 334 334 350 358 16 101 65 38 27 19 20 21 21 10 12 15 8 359 349 340
347 5 357 359 355 347 339 338 330 323 334 333 330 330 343 345 30 24 7 137 87 51 35 26 21 15 11 4 6 4 355 348 345
342 349 10 353 347 349 345 340 337 329 340 332 340 318 300 323 344 341 349 46 29 110 61 41 36 26 16 10 3 358 353 343 343
327 351 352 348 338 342 339 338 339 332 337 313 319 314 313 316 283 319 336 79 356 350 126 114 63 27 11 5 359 354 350 345 333
306 311 322 328 321 335 341 335 333 322 332 320 308 297 280 248 257 252 236 255 291 302 320 316 163 100 358 355 354 348 345 341 336
282 293 293 308 306 324 325 332 327 333 345 292 335 257 237 259 254 247 265 261 281 305 305 301 339 315 317 341 347 348 345 339 336
269 275 290 290 301 301 314 335 330 314 15 328 291 314 224 216 241 262 283 269 276 267 263 283 288 297 308 23 318 342 340 336 335
264 273 275 285 283 289 305 299 313 319 317 345 314 316 332 351 119 233 252 262 252 262 260 260 266 276 280 279 289 348 334 327 328
265 265 273 276 284 282 284 278 280 288 293 320 229 273 295 305 314 167 227 259 281 279 265 271 253 247 254 261 249 287 316 319 321
270 268 271 269 266 271 277 279 260 254 267 276 286 274 259 258 263 293 301 292 236 221 260 271 247 239 227 243 248 244 290 303 307